Groton, South Dakota, United States (57445)
Lat: 45.45N, Lon: 98.1W
Wx Zone: SDZ006
Local Info
Past Weather Observations for Tuesday, October 21, 2014

NOTE: This archive is for the closest National Weather Service station to Groton. Information may differ from the station used for current weather conditions.

Click here for Long-term Archive

Time Weather Temperature Dewpoint Humidity Pressure Winds Precip Visibility
23:53
Clear
63°F / 17°C 43°F / 6°C 49% 29.83 in
(1010 mb)
S 21.9 mph
(S 35 kph)
- 10SM
22:53
Clear
64°F / 18°C 43°F / 6°C 46% 29.86 in
(1011 mb)
SSE 21.9 mph
(SSE 35 kph)
- 10SM
21:53
Clear
64°F / 18°C 45°F / 7°C 49% 29.86 in
(1011 mb)
SSE 23 mph
(SSE 37 kph)
- 10SM
20:53
Clear
64°F / 18°C 45°F / 7°C 49% 29.86 in
(1011 mb)
SSE 20.7 mph
(SSE 33 kph)
- 10SM
19:53
Clear
66°F / 19°C 45°F / 7°C 46% 29.86 in
(1011 mb)
SSE 18.4 mph
(SSE 30 kph)
- 10SM
18:53
Clear
66°F / 19°C 45°F / 7°C 46% 29.83 in
(1010 mb)
SE 16.1 mph
(SE 26 kph)
- 10SM
17:53
Clear
72°F / 22°C 45°F / 7°C 38% 29.83 in
(1010 mb)
SSE 13.8 mph
(SSE 22 kph)
- 10SM
16:53
Clear
77°F / 25°C 43°F / 6°C 30% 29.83 in
(1010 mb)
SSE 18.4 mph
(SSE 30 kph)
- 10SM
15:53
Clear
81°F / 27°C 43°F / 6°C 26% 29.83 in
(1010 mb)
SSE 21.9 mph
(SSE 35 kph)
- 10SM
14:53
Clear
79°F / 26°C 45°F / 7°C 30% 29.83 in
(1010 mb)
S 20.7 mph
(S 33 kph)
- 10SM
13:53
Clear
79°F / 26°C 43°F / 6°C 28% 29.83 in
(1010 mb)
S 17.3 mph
(S 28 kph)
- 10SM
12:53
Clear
75°F / 24°C 43°F / 6°C 31% 29.89 in
(1012 mb)
S 20.7 mph
(S 33 kph)
- 10SM
11:53
Clear
72°F / 22°C 43°F / 6°C 36% 29.89 in
(1012 mb)
S 17.3 mph
(S 28 kph)
- 10SM
10:53
Clear
70°F / 21°C 43°F / 6°C 38% 29.92 in
(1013 mb)
S 20.7 mph
(S 33 kph)
- 10SM
09:53
Clear
63°F / 17°C 39°F / 4°C 42% 29.92 in
(1013 mb)
S 20.7 mph
(S 33 kph)
- 10SM
08:53
Clear
59°F / 15°C 39°F / 4°C 48% 29.95 in
(1014 mb)
S 16.1 mph
(S 26 kph)
- 10SM
07:53
Clear
54°F / 12°C 39°F / 4°C 58% 29.95 in
(1014 mb)
SSE 15 mph
(SSE 24 kph)
- 10SM
06:53
Clear
50°F / 10°C 37°F / 3°C 62% 29.95 in
(1014 mb)
SSE 11.5 mph
(SSE 19 kph)
- 10SM
05:53
Clear
48°F / 9°C 37°F / 3°C 66% 29.98 in
(1015 mb)
SE 11.5 mph
(SE 19 kph)
- 10SM
04:53
Clear
48°F / 9°C 39°F / 4°C 71% 29.98 in
(1015 mb)
SE 9.2 mph
(SE 15 kph)
- 10SM
03:53
Clear
46°F / 8°C 39°F / 4°C 76% 29.98 in
(1015 mb)
SE 8.1 mph
(SE 13 kph)
- 10SM
02:53
Clear
45°F / 7°C 37°F / 3°C 76% 30.01 in
(1016 mb)
SE 8.1 mph
(SE 13 kph)
- 10SM
01:53
Clear
46°F / 8°C 39°F / 4°C 76% 30.01 in
(1016 mb)
SE 6.9 mph
(SE 11 kph)
- 10SM
00:53
Clear
43°F / 6°C 37°F / 3°C 81% 30.01 in
(1016 mb)
SE 5.8 mph
(SE 9 kph)
- 10SM
Time Weather Temperature Dewpoint Humidity Pressure Winds Precip Visibility


Weather for websites

WeatherForYou.com, LLC is not responsible for any damages or problems caused by this service. Current weather conditions are obtained from the closest station including government and personal stations which may have varying degrees of accuracy. Weather forecasts are derived from the NOAA NDFD. Like all things, this site belongs to Jesus Christ... He just trusts me to maintain it. If you have any questions or comments email webmaster@weatherforyou.com

Copyright © 2014, WeatherForYou.com LLC. All rights reserved.